Weather History for Lawrence, MA

Change the Weather History Date:

Thursday, August 14, 2014

  Actual Average Record
Temperature  
Mean Temperature 65 °F -  
Max Temperature 75 °F 82 °F 99 °F (2002)
Min Temperature 57 °F 60 °F 48 °F (1964)
Growing Degree Days 15 (Base 50)    
Moisture  
Dew Point 54 °F    
Average Humidity 70    
Maximum Humidity 96    
Minimum Humidity 41    
Precipitation  
Precipitation 0.00 in - - ()
Sea Level Pressure  
Sea Level Pressure 29.77 in    
Wind  
Wind Speed 8 mph (West)    
Max Wind Speed 14 mph    
Max Gust Speed 21 mph    
Visibility 10 miles    
Events      
Averages and records for this station are not official NWS values.
T = Trace of Precipitation, MM = Missing Value Source: NWS Daily Summary

Daily Weather History Graph

Daily Weather History Graph

Search for Another Location

Airport:

Trip Planner

Search our weather history database for the weather conditions in past years. The results will help you decide how hot, cold, wet, or windy it might be!

Date:

Astronomy

Aug. 14, 2014 Rise Set
Actual Time 5:49 AM EDT 7:47 PM EDT
Civil Twilight 5:19 AM EDT 8:18 PM EDT
Nautical Twilight 4:41 AM EDT 8:55 PM EDT
Astronomical Twilight 4:00 AM EDT 9:36 PM EDT
Moon 10:00 PM EDT (8/14) 10:30 AM EDT (8/14)
Length of Visible Light 14h 59m
Length of Day
13h 57m
Waning Gibbous, 79% of the Moon is Illuminated
Aug 14
Waning Gibbous
Aug 17
Last Quarter
Aug 25
New
Sep 2
First Quarter
Sep 8
Full

Hourly Weather History & Observations

Time (EDT) Temp. Dew Point Humidity Pressure Visibility Wind Dir Wind Speed Gust Speed Precip Events Conditions
12:32 AM 63.0 °F 61.0 °F 93% 29.68 in 10.0 mi West 8.1 mph - N/A   Overcast
12:54 AM 63.0 °F 61.0 °F 93% 29.69 in 10.0 mi WNW 9.2 mph - N/A   Overcast
1:23 AM 62.1 °F 60.1 °F 93% 29.69 in 10.0 mi Variable 5.8 mph - N/A   Mostly Cloudy
1:30 AM 62.1 °F 60.1 °F 93% 29.69 in 10.0 mi West 6.9 mph - N/A   Scattered Clouds
1:54 AM 62.1 °F 60.1 °F 93% 29.69 in 10.0 mi West 6.9 mph - N/A   Clear
2:54 AM 61.0 °F 59.0 °F 93% 29.69 in 10.0 mi West 6.9 mph - N/A   Clear
3:54 AM 61.0 °F 57.9 °F 90% 29.69 in 10.0 mi WSW 6.9 mph - N/A   Clear
4:54 AM 59.0 °F 57.9 °F 96% 29.70 in 10.0 mi SW 5.8 mph - N/A   Clear
5:54 AM 60.1 °F 57.0 °F 90% 29.72 in 10.0 mi WSW 9.2 mph - N/A   Clear
6:54 AM 61.0 °F 57.0 °F 87% 29.75 in 10.0 mi WSW 6.9 mph - N/A   Clear
7:54 AM 63.0 °F 55.9 °F 78% 29.76 in 10.0 mi WSW 9.2 mph - N/A   Clear
8:54 AM 64.9 °F 55.9 °F 73% 29.77 in 10.0 mi West 11.5 mph - N/A   Clear
9:54 AM 66.0 °F 55.0 °F 68% 29.78 in 10.0 mi WSW 10.4 mph - N/A   Scattered Clouds
10:04 AM 66.9 °F 55.0 °F 66% 29.79 in 10.0 mi West 9.2 mph 17.3 mph N/A   Mostly Cloudy
10:15 AM 66.9 °F 55.0 °F 66% 29.78 in 10.0 mi West 11.5 mph 17.3 mph N/A   Scattered Clouds
10:54 AM 69.1 °F 53.1 °F 57% 29.78 in 10.0 mi West 8.1 mph - N/A   Clear
11:54 AM 71.1 °F 52.0 °F 51% 29.78 in 10.0 mi West 13.8 mph 18.4 mph N/A   Clear
12:54 PM 73.0 °F 52.0 °F 48% 29.78 in 10.0 mi WNW 12.7 mph - N/A   Partly Cloudy
1:54 PM 72.0 °F 51.1 °F 48% 29.79 in 10.0 mi West 12.7 mph - N/A   Clear
2:54 PM 73.9 °F 52.0 °F 46% 29.79 in 10.0 mi West 13.8 mph 20.7 mph N/A   Scattered Clouds
3:54 PM 73.0 °F 48.9 °F 42% 29.80 in 10.0 mi West 13.8 mph - N/A   Partly Cloudy
4:54 PM 73.0 °F 48.9 °F 42% 29.80 in 10.0 mi West 12.7 mph 17.3 mph N/A   Partly Cloudy
5:54 PM 73.0 °F 48.0 °F 41% 29.81 in 10.0 mi WNW 11.5 mph 19.6 mph N/A   Clear
6:54 PM 71.1 °F 48.0 °F 44% 29.83 in 10.0 mi Variable 6.9 mph - N/A   Clear
7:54 PM 66.9 °F 48.9 °F 52% 29.84 in 10.0 mi West 4.6 mph - N/A   Clear
8:54 PM 62.1 °F 51.1 °F 67% 29.86 in 10.0 mi SSW 3.5 mph - N/A   Clear
9:54 PM 60.1 °F 51.1 °F 72% 29.87 in 10.0 mi Calm Calm - N/A   Clear
10:54 PM 57.9 °F 51.1 °F 78% 29.89 in 10.0 mi Calm Calm - N/A   Clear
11:54 PM 57.0 °F 51.1 °F 81% 29.89 in 10.0 mi Calm Calm - N/A   Clear